Location: Palo Alto
(37.4420°N, 122.1420°W)
Time: 09:30:59
(UTC-07:00)

X-37B - Pass Details

Date: 16 August 2020
Orbit: 386 x 387 km, 45.0° (Epoch: 18 September)

Event Time Altitude Azimuth Distance (km) Brightness Sun altitude
Rises 21:42:49 0° 301° (WNW) 2,265 6.1 -19.4°
Reaches altitude 10° 21:44:58 10° 309° (NW) 1,409 4.6 -19.7°
Maximum altitude 21:47:59 40° 21° (NNE) 583 1.5 -20.2°
Enters shadow 21:48:00 40° 22° (NNE) 583 1.5 -20.2°
